Regional Weather Roundup
Issued by NWS Upton, NY

Current Version | Previous Version | Graphics & Text | Print | Product List | Glossary Off
Versions: 1 2 3 4 5 6 7 8 9 10 11 12 13 14 15 16 17 18 19 20 21 22 23 24 25 26 27

000
ASUS41 KOKX 240405
RWROKX

REGIONAL WEATHER ROUNDUP
NATIONAL WEATHER SERVICE NEW YORK NY
1200 AM EDT FRI OCT 24 2014

NOTE: "FAIR" INDICATES FEW OR NO CLOUDS BELOW 12,000 FEET WITH NO
SIGNIFICANT WEATHER AND/OR OBSTRUCTIONS TO VISIBILITY.

NYZ071-072-176-178-NJZ106-104-240500-
NEW YORK CITY METRO AREA


CITY           SKY/WX    TMP DP  RH WIND       PRES   REMARKS
CENTRAL PARK   CLOUDY    53  43  68 N7        29.80S
LAGUARDIA APRT CLOUDY    53  47  79 NW13      29.77S
KENNEDY INTL   CLOUDY    53  47  79 NW18      29.77F
NEWARK/LIBERTY CLOUDY    53  44  71 NW10      29.79R
BRNX BOT. GARD   N/A     52  45  76 N6        29.79S
TETERBORO      CLOUDY    53  43  68 N10       29.77F
$$

NYZ177-179-078>081-240500-
LONG ISLAND NEW YORK

CITY           SKY/WX    TMP DP  RH WIND       PRES   REMARKS
FARMINGDALE    MOCLDY    51  46  83 N15G24    29.73F
ISLIP          CLOUDY    51  46  83 NW14G21   29.70S
SHIRLEY        CLOUDY    50  47  89 N14G22    29.71S
WESTHAMPTON    LGT RAIN  53  48  83 NW15G23   29.70R
MONTAUK POINT    N/A     55  50  83 N14G25    29.66R
$$

NYZ052-065-067-240500-
HUDSON VALLEY

CITY           SKY/WX    TMP DP  RH WIND       PRES   REMARKS
WHITE PLAINS   MOCLDY    50  44  80 NW17G26   29.75F
NEWBURGH       NOT AVBL
MONTGOMERY     CLOUDY    50  43  77 NW7       29.79F
POUGHKEEPSIE   CLOUDY    51  44  77 N8        29.80S
ALBANY         DRIZZLE   48  46  93 N5        29.84S
$$

NJZ001-105-106-008-010-013-015-019>022-104-240500-
NEW JERSEY

CITY           SKY/WX    TMP DP  RH WIND       PRES   REMARKS
NEWARK/LIBERTY CLOUDY    53  44  71 NW10      29.79R
TETERBORO      CLOUDY    53  43  68 N10       29.77F
CALDWELL       CLOUDY    52  41  66 VRB7      29.79F
MORRISTOWN     CLOUDY    54  43  66 N10       29.79S
SOMERVILLE     CLOUDY    53  42  66 NW8       29.79F
SUSSEX         CLOUDY    52  42  69 N8G18     29.81F
ANDOVER          N/A     49  43  80 N8        29.82S
TRENTON        PTCLDY    51  42  71 NW10      29.79F
MILLVILLE      PTCLDY    53  44  71 NW10      29.82F
ATLANTIC CITY  PTCLDY    50  44  80 NW14      29.79F
WRIGHTSTOWN    CLOUDY    52  44  74 NW10      29.78F
TOMS RIVER     CLOUDY    52  45  76 NW8       29.78F
BELMAR         MOCLDY    52  43  71 NW12      29.77S
$$

PAZ047>061-062-071-240500-
EASTERN PENNSYLVANIA

CITY           SKY/WX    TMP DP  RH WIND       PRES   REMARKS
PHILADELPHIA   MOCLDY    55  43  63 NW10      29.83F
ALLENTOWN      CLOUDY    53  43  68 NW14      29.84F
SCRANTON       CLOUDY    50  44  80 N9        29.87F
$$

CTZ002-004>006-009-010-012-RIZ004-006-007-MAZ004-011-015-240500-
SOUTHERN NEW ENGLAND
 IN CT

CITY           SKY/WX    TMP DP  RH WIND       PRES   REMARKS
BRADLEY INTL   CLOUDY    53  46  77 N12       29.72S
HARTFORD       LGT RAIN  52  47  83 VRB6G16   29.72R
DANBURY        CLOUDY    49  42  77 VRB6      29.77S
WTRBRY/OXFORD  CLOUDY    46  39  76 NW10G17   29.74R
BRIDGEPORT     CLOUDY    51  44  77 NW13      29.73S
MERIDEN        CLOUDY    51  44  77 NW8       29.72R
NEW HAVEN      CLOUDY    53  45  74 NW10      29.71R
CHESTER        CLOUDY    52  46  82 N16G26    29.69R
GROTON         CLOUDY    52  49  89 N12G23    29.65R
WILLIMANTIC    LGT RAIN  51  48  89 N7        29.69S

 IN RI

CITY           SKY/WX    TMP DP  RH WIND       PRES   REMARKS
PROVIDENCE     CLOUDY    51  48  89 N15       29.65S
BLOCK ISLAND   CLOUDY    54  46  76 N20G30    29.62S
WESTERLY       CLOUDY    53  48  83 N13G24    29.65R

 IN MA

CITY           SKY/WX    TMP DP  RH WIND       PRES   REMARKS
BOSTON         RAIN      49  48  97 N14       29.66S FOG
WORCESTER      LGT RAIN  48  46  93 N18G24    29.68F FOG
WESTFIELD      LGT RAIN  51  47  86 N9        29.72F
PROVINCETOWN   CLOUDY    54   0  11 N22G35    29.58S
NANTUCKET      CLOUDY    57  57 100 N20G26    29.51S FOG
$$

ANZ330-335-338-340-345-350-353-355-240500-
COASTAL MARINE OBSERVATIONS


STATION/POSITION TIME  SKY/WX   TEMP    WIND        PRES    VSBY  WAVE
                                AIR SEA DIR/SP/G                  HT/PER
                 (UTC)          (F)     (DEG/KT/KT) (MB)    (MI)  (FT/S)
NY HARB ENTRANCE NOT AVBL
4S FIRE IS       0400               63                N/A           3/ 8
20S FIRE ISLAND  0400            55 63  330/ 25/ 29 1005.5          6/ 5
23SW MTP         0400                                 N/A           7/ 6
HUDSON CANYON    0400            56 66  330/ 25/ 31 1004.4         10/ 7
EXECUTION ROCKS  0400            54 62  320/ 19/ 31   N/A
WESTERN LI SOUND 0400            54     330/ 17/ 21   N/A           2/ 3
CENTRAL LI SOUND 0300            55 63  320/ 17/ 21   N/A           3/ 4
EASTERN LI SOUND 0300            55 63  360/ 17/ 25   N/A
ROBBINS REEF     0400            53     330/ 14/ 19 1007.1
$$


>>>>>>>>>>>>>>>>>>>>>>>>>>>> KEY <<<<<<<<<<<<<<<<<<<<<<<<<<<
>                                                          <
>     SKY/WX - SKY CONDITION/PRESENT WEATHER               <
>     TMP    - TEMPERATURE IN FAHRENHEIT                   <
>     DP     - DEWPOINT IN FAHRENHEIT                      <
>     RH     - RELATIVE HUMIDITY IN PERCENT                <
>     WIND   - DIRECTION AND SPEED IN MPH                  <
>     PRES   - MEAN SEA LEVEL PRESSURE IN INCHES OF HG     <
>     WCI    - WIND CHILL INDEX                            <
>     VSB    - VISIBILITY IN MILES                         <
>     HX     - HEAT INDEX                                  <
>     TC     - TEMPERATURE IN CELSIUS                      <
>     VRB    - VARIABLE WIND DIRECTION                     <
>                                                          <
>>>>>>>>>>>>>>>>>>>>>>>>>>>> KEY <<<<<<<<<<<<<<<<<<<<<<<<<<<





USA.gov is the U.S. government's official web portal to all federal, state and local government web resources and services.